| time (UTC) | temp F | wind direction | speed MPH | gust MPH | rain 1hr in | rain 24hr in | rain mn in | humidity % | barometer mb |
| 20260903181001 | 83 | 282 | 6.0 | 10.0 | 0.00 | 0.00 | 0.00 | 70 | 1014.2 |
| 20260903175503 | 83 | 246 | 3.0 | 9.0 | 0.00 | 0.00 | 0.00 | 72 | 1014.2 |
| 20260903174502 | 81 | 197 | 4.0 | 9.0 | 0.00 | 0.00 | 0.00 | 76 | 1014.6 |
| 20260903173002 | 80 | 240 | 3.0 | 8.0 | 0.00 | 0.00 | 0.00 | 79 | 1014.6 |
| 20260903171503 | 79 | 265 | 2.0 | 9.0 | 0.00 | 0.00 | 0.00 | 80 | 1014.6 |
| 20260903170002 | 79 | 253 | 6.0 | 15.0 | 0.00 | 0.00 | 0.00 | 80 | 1014.9 |
| 20260903164901 | 80 | 237 | 6.0 | 11.0 | 0.00 | 0.00 | 0.00 | 77 | 1014.6 |
| 20260903163501 | 79 | 233 | 6.0 | 13.0 | 0.00 | 0.00 | 0.00 | 80 | 1014.6 |
| 20260903161902 | 78 | 222 | 4.0 | 10.0 | 0.00 | 0.00 | 0.00 | 81 | 1014.9 |
| 20260903160402 | 78 | 219 | 6.0 | 6.0 | 0.00 | 0.00 | 0.00 | 81 | 1014.9 |
| 20260903155002 | 78 | 270 | 3.0 | 4.0 | 0.00 | 0.00 | 0.00 | 81 | 1014.9 |
| 20260903153902 | 78 | 258 | 3.0 | 9.0 | 0.00 | 0.00 | 0.00 | 81 | 1015.2 |
| 20260903152901 | 78 | 268 | 4.0 | 4.0 | 0.00 | 0.00 | 0.00 | 82 | 1015.2 |
| 20260903151402 | 77 | 258 | 6.0 | 7.0 | 0.00 | 0.00 | 0.00 | 83 | 1015.2 |
| 20260903150002 | 77 | 212 | 3.0 | 9.0 | 0.00 | 0.00 | 0.00 | 83 | 1015.2 |
| 20260903144902 | 76 | 191 | 1.0 | 6.0 | 0.00 | 0.00 | 0.00 | 84 | 1015.2 |
| 20260903143503 | 76 | 259 | 1.0 | 6.0 | 0.00 | 0.00 | 0.00 | 85 | 1015.2 |
| 20260903142403 | 76 | 257 | 4.0 | 6.0 | 0.00 | 0.00 | 0.00 | 83 | 1014.9 |
| 20260903141402 | 77 | 293 | 3.0 | 8.0 | 0.00 | 0.00 | 0.00 | 83 | 1014.9 |
| 20260903140003 | 76 | 268 | 4.0 | 7.0 | 0.00 | 0.00 | 0.00 | 85 | 1014.9 |
| 20260903134502 | 75 | 269 | 2.0 | 8.0 | 0.00 | 0.00 | 0.00 | 87 | 1015.2 |
| 20260903133002 | 75 | 272 | 1.0 | 5.0 | 0.00 | 0.00 | 0.00 | 88 | 1015.2 |
| 20260903131402 | 74 | 277 | 0.0 | 5.0 | 0.00 | 0.00 | 0.00 | 91 | 1015.2 |
| 20260903130002 | 73 | 7 | 2.0 | 4.0 | 0.00 | 0.00 | 0.00 | 94 | 1015.2 |
| 20260903124502 | 72 | 301 | 0.0 | 8.0 | 0.00 | 0.00 | 0.00 | 96 | 1015.6 |
| 20260903123002 | 71 | 3 | 0.0 | 3.0 | 0.00 | 0.00 | 0.00 | 97 | 1015.6 |
| 20260903122002 | 71 | 270 | 1.0 | 4.0 | 0.00 | 0.00 | 0.00 | 97 | 1015.6 |
| 20260903120502 | 70 | 294 | 0.0 | 3.0 | 0.00 | 0.00 | 0.00 | 98 | 1015.6 |
| 20260903115002 | 70 | 230 | 0.0 | 1.0 | 0.00 | 0.00 | 0.00 | 98 | 1015.2 |
| 20260903113502 | 70 | 322 | 0.0 | 0.0 | 0.00 | 0.00 | 0.00 | 98 | 1014.9 |
| 20260903112502 | 70 | 279 | 0.0 | 4.0 | 0.00 | 0.00 | 0.00 | 98 | 1014.9 |
| 20260903111002 | 69 | 275 | 1.0 | 3.0 | 0.00 | 0.00 | 0.00 | 98 | 1014.6 |
| 20260903105502 | 68 | 268 | 0.0 | 0.0 | 0.00 | 0.00 | 0.00 | 97 | 1014.6 |
| 20260903104402 | 68 | 260 | 0.0 | 0.0 | 0.00 | 0.00 | 0.00 | 97 | 1014.2 |
| 20260903102901 | 68 | 274 | 0.0 | 0.0 | 0.00 | 0.00 | 0.00 | 97 | 1014.2 |
| 20260903101402 | 69 | 226 | 2.0 | 3.0 | 0.00 | 0.00 | 0.00 | 97 | 1014.2 |
| 20260903095901 | 68 | 225 | 0.0 | 0.0 | 0.00 | 0.00 | 0.00 | 97 | 1014.2 |
| 20260903094402 | 68 | 190 | 0.0 | 3.0 | 0.00 | 0.00 | 0.00 | 97 | 1014.2 |
| 20260903093401 | 68 | 256 | 0.0 | 0.0 | 0.00 | 0.00 | 0.00 | 96 | 1013.9 |
| 20260903092002 | 68 | 258 | 0.0 | 0.0 | 0.00 | 0.00 | 0.00 | 96 | 1013.9 |
| 20260903090402 | 68 | 334 | 0.0 | 0.0 | 0.00 | 0.00 | 0.00 | 96 | 1013.9 |
| 20260903085001 | 69 | 227 | 0.0 | 0.0 | 0.00 | 0.00 | 0.00 | 95 | 1013.5 |
| 20260903083402 | 69 | 280 | 0.0 | 0.0 | 0.00 | 0.00 | 0.00 | 95 | 1013.5 |
| 20260903081902 | 69 | 308 | 0.0 | 0.0 | 0.00 | 0.00 | 0.00 | 94 | 1013.9 |
| 20260903080402 | 69 | 304 | 0.0 | 1.0 | 0.00 | 0.00 | 0.00 | 94 | 1013.5 |
| 20260903075002 | 70 | 313 | 5.0 | 5.0 | 0.00 | 0.00 | 0.00 | 94 | 1013.5 |
| 20260903073902 | 70 | 245 | 0.0 | 3.0 | 0.00 | 0.00 | 0.00 | 94 | 1013.5 |
| 20260903072402 | 70 | 262 | 5.0 | 5.0 | 0.00 | 0.00 | 0.00 | 94 | 1013.5 |
| 20260903071402 | 70 | 281 | 3.0 | 7.0 | 0.00 | 0.00 | 0.00 | 94 | 1013.2 |
| 20260903070003 | 70 | 274 | 6.0 | 8.0 | 0.00 | 0.00 | 0.00 | 94 | 1013.5 |
| 20260903064501 | 70 | 218 | 3.0 | 6.0 | 0.00 | 0.00 | 0.00 | 94 | 1013.9 |
| 20260903063402 | 70 | 260 | 8.0 | 9.0 | 0.00 | 0.00 | 0.00 | 94 | 1013.9 |
| 20260903062003 | 70 | 192 | 1.0 | 9.0 | 0.00 | 0.00 | 0.00 | 94 | 1013.9 |
| 20260903060501 | 70 | 292 | 7.0 | 11.0 | 0.00 | 0.00 | 0.00 | 94 | 1013.9 |
| 20260903055002 | 70 | 277 | 5.0 | 7.0 | 0.00 | 0.00 | 0.00 | 94 | 1013.5 |
| 20260903053902 | 70 | 270 | 2.0 | 8.0 | 0.00 | 0.00 | 0.00 | 94 | 1013.5 |
| 20260903052501 | 70 | 285 | 8.0 | 9.0 | 0.00 | 0.00 | 0.00 | 94 | 1013.5 |
| 20260903051402 | 70 | 196 | 5.0 | 7.0 | 0.00 | 0.00 | 0.00 | 94 | 1013.9 |
| 20260903050003 | 70 | 217 | 8.0 | 8.0 | 0.00 | 0.00 | 0.00 | 95 | 1013.9 |
| 20260903044502 | 70 | 234 | 4.0 | 6.0 | 0.00 | 0.00 | 0.00 | 95 | 1013.9 |
| 20260903042902 | 69 | 272 | 2.0 | 5.0 | 0.00 | 0.00 | 0.00 | 95 | 1013.5 |
| 20260903041501 | 69 | 245 | 3.0 | 10.0 | 0.00 | 0.00 | 0.00 | 95 | 1013.2 |
| 20260903040002 | 69 | 312 | 4.0 | 12.0 | 0.00 | 0.00 | 0.00 | 96 | 1012.9 |
| 20260903034402 | 69 | 242 | 4.0 | 8.0 | 0.00 | 0.00 | 0.35 | 97 | 1012.9 |
| 20260903033002 | 69 | 223 | 4.0 | 5.0 | 0.00 | 0.00 | 0.35 | 97 | 1013.2 |
| 20260903031502 | 69 | 222 | 3.0 | 4.0 | 0.00 | 0.00 | 0.35 | 97 | 1013.5 |
| 20260903025902 | 69 | 201 | 2.0 | 5.0 | 0.00 | 0.00 | 0.35 | 97 | 1014.2 |
| 20260903024503 | 69 | 248 | 2.0 | 4.0 | 0.00 | 0.00 | 0.35 | 97 | 1013.9 |
| 20260903023002 | 69 | 121 | 0.0 | 2.0 | 0.01 | 0.00 | 0.35 | 97 | 1014.6 |
| 20260903021502 | 69 | 245 | 3.0 | 5.0 | 0.01 | 0.00 | 0.35 | 97 | 1014.6 |
| 20260903020004 | 69 | 165 | 3.0 | 7.0 | 0.01 | 0.00 | 0.35 | 97 | 1014.9 |
| 20260903014402 | 70 | 208 | 3.0 | 3.0 | 0.01 | 0.00 | 0.35 | 97 | 1014.2 |
| 20260903013002 | 70 | 245 | 0.0 | 0.0 | 0.01 | 0.00 | 0.34 | 97 | 1014.6 |
| 20260903011502 | 70 | 227 | 3.0 | 5.0 | 0.01 | 0.00 | 0.34 | 97 | 1013.9 |
| 20260903010003 | 70 | 154 | 0.0 | 3.0 | 0.05 | 0.00 | 0.34 | 97 | 1014.2 |
| 20260903004502 | 70 | 243 | 4.0 | 5.0 | 0.06 | 0.00 | 0.34 | 97 | 1012.9 |
| 20260903003003 | 70 | 286 | 0.0 | 1.0 | 0.09 | 0.00 | 0.33 | 96 | 1012.9 |
| 20260903001502 | 70 | 167 | 0.0 | 3.0 | 0.09 | 0.00 | 0.32 | 96 | 1013.2 |
| 20260903000002 | 70 | 174 | 0.0 | 7.0 | 0.27 | 0.00 | 0.28 | 95 | 1012.9 |
| 20260902234502 | 71 | 34 | 7.0 | 16.0 | 0.24 | 0.00 | 0.26 | 94 | 1013.9 |
| 20260902233003 | 72 | 338 | 13.0 | 13.0 | 0.21 | 0.00 | 0.23 | 94 | 1014.6 |
| 20260902231502 | 72 | 264 | 10.0 | 13.0 | 0.21 | 0.00 | 0.23 | 92 | 1014.2 |
| 20260902230003 | 78 | 344 | 5.0 | 8.0 | 0.00 | 0.00 | 0.02 | 86 | 1013.5 |
| 20260902224901 | 79 | 293 | 2.0 | 9.0 | 0.00 | 0.00 | 0.02 | 86 | 1012.2 |
| 20260902223402 | 80 | 213 | 6.0 | 8.0 | 0.00 | 0.00 | 0.02 | 83 | 1013.2 |
| 20260902222401 | 80 | 280 | 6.0 | 12.0 | 0.00 | 0.00 | 0.02 | 82 | 1012.9 |
| 20260902220903 | 81 | 253 | 3.0 | 10.0 | 0.00 | 0.00 | 0.02 | 80 | 1012.5 |
| 20260902215403 | 83 | 283 | 9.0 | 9.0 | 0.00 | 0.00 | 0.02 | 77 | 1012.2 |
| 20260902213901 | 84 | 249 | 1.0 | 8.0 | 0.00 | 0.00 | 0.02 | 76 | 1011.9 |
| 20260902212502 | 85 | 205 | 3.0 | 9.0 | 0.00 | 0.00 | 0.02 | 74 | 1012.9 |
| 20260902211402 | 85 | 336 | 3.0 | 7.0 | 0.00 | 0.00 | 0.02 | 75 | 1012.9 |
| 20260902205902 | 83 | 320 | 1.0 | 4.0 | 0.00 | 0.00 | 0.02 | 80 | 1013.2 |
| 20260902204503 | 82 | 251 | 5.0 | 6.0 | 0.00 | 0.00 | 0.02 | 80 | 1013.5 |
| 20260902203002 | 82 | 292 | 1.0 | 4.0 | 0.00 | 0.00 | 0.02 | 80 | 1013.9 |
| 20260902201502 | 82 | 256 | 4.0 | 8.0 | 0.00 | 0.00 | 0.02 | 78 | 1014.2 |
| 20260902200002 | 82 | 308 | 5.0 | 14.0 | 0.00 | 0.00 | 0.02 | 77 | 1014.6 |
| 20260902195001 | 82 | 257 | 3.0 | 12.0 | 0.00 | 0.00 | 0.02 | 76 | 1014.9 |
| 20260902193502 | 85 | 251 | 6.0 | 10.0 | 0.00 | 0.00 | 0.02 | 70 | 1014.9 |
| 20260902192002 | 86 | 264 | 11.0 | 12.0 | 0.00 | 0.00 | 0.02 | 69 | 1014.9 |
| 20260902190502 | 86 | 154 | 3.0 | 8.0 | 0.00 | 0.00 | 0.02 | 67 | 1014.9 |
| 20260902185002 | 86 | 355 | 8.0 | 11.0 | 0.00 | 0.00 | 0.02 | 65 | 1014.9 |
| 20260902183903 | 86 | 242 | 7.0 | 9.0 | 0.00 | 0.00 | 0.02 | 64 | 1014.9 |
| 20260902182502 | 86 | 198 | 4.0 | 11.0 | 0.00 | 0.00 | 0.02 | 66 | 1014.9 |